Meteo pe oră la Dabrowka

Astăzi, 23 Aprilie, Vineri

Timp Temperatura Precipitaţii Vânt Presiune Umiditate
00:00 +1°C° 0 mm 3 m/s 747 mmHg 90%
01:00 0°C° 0 mm 3 m/s 747 mmHg 91%
02:00 0°C° 0 mm 3 m/s 747 mmHg 91%
03:00 0°C° 0 mm 3 m/s 747 mmHg 91%
04:00 -1°C° 0 mm 4 m/s 747 mmHg 91%
05:00 0°C° 0 mm 4 m/s 747 mmHg 84%
06:00 +1°C° 0 mm 4 m/s 748 mmHg 76%
07:00 +2°C° 0 mm 5 m/s 748 mmHg 69%
08:00 +3°C° 0 mm 5 m/s 748 mmHg 62%
09:00 +6°C° 0 mm 5 m/s 748 mmHg 54%
10:00 +7°C° 0 mm 6 m/s 748 mmHg 47%
11:00 +7°C° 0.1 mm 6 m/s 748 mmHg 47%
12:00 +8°C° 0.1 mm 7 m/s 748 mmHg 46%
13:00 +8°C° 0.1 mm 7 m/s 748 mmHg 46%
14:00 +6°C° 0.3 mm 7 m/s 748 mmHg 53%
15:00 +6°C° 0.3 mm 7 m/s 749 mmHg 59%
16:00 +5°C° 0.3 mm 7 m/s 749 mmHg 66%
17:00 +4°C° 0.2 mm 7 m/s 749 mmHg 71%
18:00 +3°C° 0.2 mm 6 m/s 749 mmHg 76%
19:00 +2°C° 0.2 mm 5 m/s 750 mmHg 81%
20:00 +2°C° 0.2 mm 5 m/s 750 mmHg 85%
21:00 +1°C° 0.2 mm 4 m/s 750 mmHg 89%
22:00 +2°C° 0.2 mm 3 m/s 750 mmHg 92%
23:00 +2°C° 0 mm 3 m/s 750 mmHg 92%

Mâine, 24 Aprilie, Sâmbătă

Timp Temperatura Precipitaţii Vânt Presiune Umiditate
00:00 +1°C° 0 mm 3 m/s 750 mmHg 92%
01:00 0°C° 0 mm 3 m/s 750 mmHg 92%
02:00 0°C° 0 mm 3 m/s 750 mmHg 92%
03:00 0°C° 0 mm 3 m/s 750 mmHg 92%
04:00 -1°C° 0 mm 3 m/s 750 mmHg 91%
05:00 +1°C° 0 mm 3 m/s 750 mmHg 83%
06:00 +2°C° 0 mm 3 m/s 750 mmHg 75%
07:00 +4°C° 0 mm 3 m/s 750 mmHg 68%
08:00 +5°C° 0 mm 4 m/s 750 mmHg 60%
09:00 +6°C° 0 mm 4 m/s 750 mmHg 52%
10:00 +8°C° 0 mm 4 m/s 750 mmHg 45%
11:00 +8°C° 0 mm 4 m/s 749 mmHg 45%
12:00 +8°C° 0 mm 5 m/s 749 mmHg 45%
13:00 +9°C° 0 mm 5 m/s 749 mmHg 45%
14:00 +8°C° 0.1 mm 5 m/s 749 mmHg 51%
15:00 +8°C° 0.1 mm 5 m/s 749 mmHg 58%
16:00 +7°C° 0.1 mm 5 m/s 748 mmHg 64%
17:00 +6°C° 0.2 mm 4 m/s 748 mmHg 69%
18:00 +5°C° 0.2 mm 4 m/s 748 mmHg 74%
19:00 +4°C° 0.2 mm 3 m/s 748 mmHg 80%
20:00 +4°C° 0 mm 3 m/s 748 mmHg 82%
21:00 +3°C° 0 mm 3 m/s 749 mmHg 85%
22:00 +1°C° 0 mm 4 m/s 749 mmHg 88%
23:00 +1°C° 0 mm 3 m/s 749 mmHg 89%

Poimâine, 25 Aprilie, Duminică

Timp Temperatura Precipitaţii Vânt Presiune Umiditate
00:00 +2°C° 0 mm 2 m/s 749 mmHg 91%
01:00 +2°C° 0 mm 1 m/s 749 mmHg 92%
02:00 +1°C° 0 mm 1 m/s 749 mmHg 92%
03:00 +1°C° 0 mm 1 m/s 749 mmHg 91%
04:00 -2°C° 0 mm 2 m/s 749 mmHg 91%
05:00 -1°C° 0 mm 2 m/s 750 mmHg 83%
06:00 +2°C° 0 mm 2 m/s 750 mmHg 75%
07:00 +2°C° 0 mm 3 m/s 750 mmHg 67%
08:00 +4°C° 0 mm 3 m/s 750 mmHg 56%
09:00 +5°C° 0 mm 4 m/s 750 mmHg 46%
10:00 +6°C° 0 mm 4 m/s 749 mmHg 35%
11:00 +6°C° 0 mm 5 m/s 749 mmHg 37%
12:00 +6°C° 0 mm 5 m/s 749 mmHg 38%
13:00 +5°C° 0 mm 6 m/s 749 mmHg 40%
14:00 +5°C° 0.1 mm 6 m/s 749 mmHg 42%
15:00 +6°C° 0.1 mm 5 m/s 749 mmHg 44%
16:00 +6°C° 0.1 mm 5 m/s 748 mmHg 47%
17:00 +5°C° 0.1 mm 5 m/s 749 mmHg 53%
18:00 +4°C° 0.1 mm 4 m/s 749 mmHg 59%
19:00 +2°C° 0.1 mm 3 m/s 749 mmHg 65%
20:00 +1°C° 0 mm 3 m/s 749 mmHg 68%
21:00 +1°C° 0 mm 3 m/s 749 mmHg 70%
22:00 0°C° 0 mm 3 m/s 749 mmHg 73%
23:00 -1°C° 0 mm 3 m/s 749 mmHg 76%

26 Aprilie, Luni

Timp Temperatura Precipitaţii Vânt Presiune Umiditate
00:00 -2°C° 0 mm 2 m/s 749 mmHg 79%
01:00 -2°C° 0 mm 2 m/s 749 mmHg 81%
02:00 -2°C° 0 mm 2 m/s 748 mmHg 80%
03:00 -2°C° 0 mm 2 m/s 748 mmHg 79%
04:00 -3°C° 0 mm 2 m/s 748 mmHg 78%
05:00 -1°C° 0 mm 3 m/s 748 mmHg 70%
06:00 +1°C° 0 mm 3 m/s 748 mmHg 62%
07:00 +2°C° 0 mm 3 m/s 748 mmHg 54%
08:00 +3°C° 0 mm 4 m/s 748 mmHg 50%
09:00 +5°C° 0 mm 4 m/s 748 mmHg 46%
10:00 +6°C° 0 mm 4 m/s 747 mmHg 42%
11:00 +6°C° 0.1 mm 5 m/s 747 mmHg 43%
12:00 +6°C° 0.1 mm 5 m/s 747 mmHg 43%
13:00 +7°C° 0.1 mm 5 m/s 746 mmHg 44%
14:00 +7°C° 0 mm 5 m/s 746 mmHg 43%
15:00 +7°C° 0 mm 5 m/s 746 mmHg 41%
16:00 +7°C° 0 mm 5 m/s 745 mmHg 40%
17:00 +5°C° 0 mm 4 m/s 745 mmHg 50%
18:00 +3°C° 0 mm 3 m/s 745 mmHg 59%
19:00 +3°C° 0 mm 2 m/s 745 mmHg 68%
20:00 +2°C° 0 mm 2 m/s 746 mmHg 72%
21:00 +1°C° 0 mm 2 m/s 746 mmHg 75%
22:00 +1°C° 0 mm 2 m/s 746 mmHg 78%
23:00 +1°C° 0 mm 2 m/s 746 mmHg 79%

27 Aprilie, Marţi

Timp Temperatura Precipitaţii Vânt Presiune Umiditate
00:00 -1°C° 0 mm 2 m/s 746 mmHg 80%
01:00 -1°C° 0 mm 2 m/s 745 mmHg 81%
02:00 -1°C° 0 mm 2 m/s 745 mmHg 81%
03:00 -1°C° 0 mm 2 m/s 745 mmHg 82%
04:00 -1°C° 0 mm 2 m/s 745 mmHg 82%
05:00 +2°C° 0 mm 1 m/s 745 mmHg 74%
06:00 +4°C° 0 mm 1 m/s 745 mmHg 67%
07:00 +6°C° 0 mm 1 m/s 745 mmHg 59%
08:00 +7°C° 0 mm 1 m/s 745 mmHg 53%
09:00 +9°C° 0 mm 1 m/s 745 mmHg 47%
10:00 +10°C° 0 mm 1 m/s 744 mmHg 41%
11:00 +11°C° 0 mm 1 m/s 744 mmHg 40%
12:00 +12°C° 0 mm 2 m/s 743 mmHg 38%
13:00 +13°C° 0 mm 2 m/s 743 mmHg 36%
14:00 +12°C° 0 mm 2 m/s 742 mmHg 38%
15:00 +11°C° 0 mm 3 m/s 742 mmHg 40%
16:00 +11°C° 0 mm 3 m/s 741 mmHg 42%
17:00 +10°C° 0 mm 3 m/s 741 mmHg 48%
18:00 +8°C° 0 mm 3 m/s 741 mmHg 55%
19:00 +7°C° 0 mm 3 m/s 740 mmHg 62%
20:00 +7°C° 0 mm 3 m/s 740 mmHg 61%
21:00 +6°C° 0 mm 4 m/s 740 mmHg 60%
22:00 +5°C° 0 mm 4 m/s 739 mmHg 60%
23:00 +5°C° 0 mm 4 m/s 739 mmHg 61%

28 Aprilie, Miercuri

Timp Temperatura Precipitaţii Vânt Presiune Umiditate
00:00 +5°C° 0 mm 4 m/s 738 mmHg 63%
01:00 +5°C° 0 mm 4 m/s 738 mmHg 65%
02:00 +5°C° 0 mm 4 m/s 738 mmHg 71%
03:00 +5°C° 0 mm 3 m/s 737 mmHg 76%
04:00 +5°C° 0 mm 3 m/s 737 mmHg 82%
05:00 +5°C° 0.2 mm 3 m/s 736 mmHg 85%
06:00 +5°C° 0.2 mm 3 m/s 736 mmHg 87%
07:00 +6°C° 0.2 mm 2 m/s 736 mmHg 90%
08:00 +6°C° 0.7 mm 2 m/s 736 mmHg 92%
09:00 +6°C° 0.7 mm 2 m/s 736 mmHg 93%
10:00 +7°C° 0.7 mm 1 m/s 736 mmHg 95%
11:00 +7°C° 0.6 mm 1 m/s 736 mmHg 95%
12:00 +7°C° 0.6 mm 1 m/s 735 mmHg 95%
13:00 +8°C° 0.6 mm 1 m/s 735 mmHg 95%
14:00 +8°C° 0.5 mm 1 m/s 735 mmHg 95%
15:00 +7°C° 0.5 mm 2 m/s 736 mmHg 95%
16:00 +7°C° 0.5 mm 2 m/s 736 mmHg 95%
17:00 +7°C° 0 mm 2 m/s 736 mmHg 95%
18:00 +7°C° 0 mm 3 m/s 736 mmHg 96%
19:00 +5°C° 0 mm 3 m/s 736 mmHg 96%
20:00 +5°C° 0 mm 3 m/s 737 mmHg 96%
21:00 +5°C° 0 mm 3 m/s 737 mmHg 96%
22:00 +4°C° 0 mm 3 m/s 738 mmHg 96%
23:00 +4°C° 0.1 mm 3 m/s 738 mmHg 96%
Arată mai mult

Formular de consimțământ

Meteoprog și furnizorii noștri de servicii pot stoca și accesa date personale, precum cookies, identificatori de dispozitiv sau alte tehnologii similare pe dispozitivul dumneavoastră și procesa astfel de date pentru a personaliza conținutul și reclamele, dar și pentru a oferi caracteristici de social media și pentru a analiza traficul.

  • Stocarea și/sau accesarea informațiilor pe dispozitivul dumneavoastră

    Cookies, identificatori de dispozitiv sau alte informații pot fi stocate sau accesate pe dispozitiv în scopurile indicate mai sus.

  • Reclame și conținut personalizat, evaluarea reclamelor și a conținutului, informații despre audiențe și dezvoltarea produselor

    Reclamele și conținutul pot fi personalizate pe baza unui profil. Pot fi adăugate date suplimentare pentru a personaliza mai bine reclamele și conținutul. Performanța reclamelor și conținutului poate fi măsurată. Pot fi obținute informații despre utilizatorii care au văzut reclamele și conținutul. Aceste date pot fi utilizate pentru a dezvolta sau îmbunătăți experiența utilizatorilor, sistemele și software-ul.

Dând clic pe ‘Sunt de acord’, permiteți utilizarea cookie-urilor menționate, a identificatorilor de dispozitiv, balizelor web sau altor tehnologii similare. Setările pot fi modificate din browser-ul dispozitivului dumneavoastră.

În anumite scopuri, interesele legitime pot prima asupra consimțământului. Puteți citi mai multe informații în acest sens în Politica privind Confidențialitatea Datelor și Cookie.